Date String (YYYY-MM-DD hh:mm:ss) UTC,Instrument flags,Ambient pressure (hPa),Sample flow (lpm),Bypass flow (lpm),Sample temperature (°C),Ambient temperature (°C),ASC tube jacket temperature (°C),LED temperature (°C),Box temperature (°C),Sample RH (%),Span deviation,Mass concentration (μg/m³),Mass concentration (μg/m³),Mass concentration (μg/m³)
DateTimeUTC,F1_M11,P_M11,Q1_M11,Q2_M11,T1_M11,T2_M11,T3_M11,T4_M11,T5_M11,U1_M11,ZSPAN_M11,X0_M11,X2_M11,X1_M11
2022-02-04 21:00:00,,0832.5,5.00,0.00,21.2,20.8,00.0,30.3,22.8,07.7,0000.0,0006.17,0002.57,0002.00
2022-02-04 21:01:00,,0832.5,5.00,0.00,21.2,20.8,00.0,30.3,22.8,07.9,0000.0,0007.20,0002.61,0002.00
2022-02-04 21:02:00,,0832.5,5.01,0.00,21.2,20.7,00.0,30.3,22.8,08.0,0000.0,0007.37,0002.61,0001.99
2022-02-04 21:03:00,,0832.5,4.99,0.00,21.2,20.7,00.0,30.3,22.7,08.1,0000.0,0007.44,0002.61,0002.00
2022-02-04 21:04:00,,0832.4,5.00,0.00,21.1,20.7,00.0,30.3,22.7,08.0,0000.0,0007.44,0002.58,0001.99
2022-02-04 21:05:00,,0832.5,5.00,0.00,21.1,20.6,00.0,30.2,22.7,08.1,0000.0,0007.41,0002.54,0001.98
2022-02-04 21:06:00,,0832.5,5.01,0.00,21.1,20.6,00.0,30.2,22.7,08.3,0000.0,0007.45,0002.54,0001.98
2022-02-04 21:07:00,,0832.4,5.00,0.00,21.1,20.6,00.0,30.2,22.7,08.0,0000.0,0007.28,0002.52,0001.98
2022-02-04 21:08:00,,0832.4,4.99,0.00,21.1,20.6,00.0,30.2,22.7,08.2,0000.0,0006.39,0002.51,0001.98
2022-02-04 21:09:00,,0832.4,4.99,0.00,21.1,20.6,00.0,30.2,22.7,08.0,0000.0,0006.01,0002.49,0001.98
2022-02-04 21:10:00,,0832.5,5.00,0.00,21.1,20.6,00.0,30.2,22.6,08.0,0000.0,0005.38,0002.49,0001.97
2022-02-04 21:11:00,,0832.4,5.01,0.00,21.1,20.6,00.0,30.2,22.6,08.0,0000.0,0005.38,0002.50,0001.97
2022-02-04 21:12:00,,0832.4,5.01,0.00,21.0,20.5,00.0,30.2,22.6,08.3,0000.0,0004.55,0002.47,0001.96
2022-02-04 21:13:00,,0832.4,5.00,0.00,21.0,20.5,00.0,30.1,22.6,08.5,0000.0,0004.48,0002.47,0001.95
2022-02-04 21:14:00,,0832.4,5.00,0.00,21.0,20.5,00.0,30.1,22.6,08.2,0000.0,0004.31,0002.46,0001.93
2022-02-04 21:15:00,,0832.3,4.99,0.00,21.0,20.5,00.0,30.1,22.6,08.0,0000.0,0004.25,0002.46,0001.93
2022-02-04 21:16:00,,0832.3,5.00,0.00,21.0,20.4,00.0,30.1,22.5,08.3,0000.0,0004.28,0002.47,0001.94
2022-02-04 21:17:00,,0832.4,5.00,0.00,21.0,20.4,00.0,30.1,22.5,08.6,0000.0,0004.14,0002.46,0001.95
2022-02-04 21:18:00,,0832.4,5.00,0.00,21.0,20.5,00.0,30.1,22.6,08.3,0000.0,0004.30,0002.46,0001.94
2022-02-04 21:19:00,,0832.4,5.00,0.00,21.0,20.5,00.0,30.1,22.6,08.5,0000.0,0004.34,0002.45,0001.94
2022-02-04 21:20:00,,0832.3,5.01,0.00,21.0,20.5,00.0,30.1,22.6,08.7,0000.0,0005.31,0002.46,0001.93
2022-02-04 21:21:00,,0832.3,4.99,0.00,21.0,20.8,00.0,30.1,22.7,08.5,0000.0,0005.46,0002.45,0001.94
2022-02-04 21:22:00,,0832.3,5.01,0.00,21.2,21.8,00.0,30.1,23.1,08.3,0000.0,0005.36,0002.42,0001.93
2022-02-04 21:23:00,,0832.3,5.00,0.00,21.4,22.7,00.0,30.2,23.4,08.3,0000.0,0005.12,0002.40,0001.95
2022-02-04 21:24:00,,0832.3,4.99,0.00,21.5,22.7,00.0,30.2,23.5,08.6,0000.0,0004.88,0002.40,0001.96
2022-02-04 21:25:00,,0832.3,5.00,0.00,21.5,22.4,00.0,30.3,23.4,08.5,0000.0,0004.83,0002.39,0001.97
2022-02-04 21:26:00,,0832.3,5.01,0.00,21.5,22.1,00.0,30.3,23.4,08.5,0000.0,0004.80,0002.37,0001.97
2022-02-04 21:27:00,,0832.2,5.00,0.00,21.5,21.9,00.0,30.3,23.3,08.8,0000.0,0004.78,0002.38,0001.98
2022-02-04 21:28:00,,0832.3,4.99,0.00,21.5,21.7,00.0,30.4,23.3,08.8,0000.0,0004.69,0002.38,0002.00
2022-02-04 21:29:00,,0832.3,4.99,0.00,21.5,21.5,00.0,30.4,23.2,08.4,0000.0,0004.56,0002.35,0002.02
2022-02-04 21:30:00,,0832.3,5.02,0.00,21.5,21.4,00.0,30.4,23.2,08.5,0000.0,0004.58,0002.39,0002.04
2022-02-04 21:31:00,,0832.2,4.99,0.00,21.5,21.3,00.0,30.4,23.2,08.5,0000.0,0003.81,0002.39,0002.07
2022-02-04 21:32:00,,0832.3,5.00,0.00,21.5,21.3,00.0,30.4,23.2,08.7,0000.0,0003.37,0002.44,0002.10
2022-02-04 21:33:00,,0832.2,5.00,0.00,21.5,21.3,00.0,30.4,23.2,08.5,0000.0,0003.69,0002.51,0002.14
2022-02-04 21:34:00,,0832.3,5.00,0.00,21.6,21.3,00.0,30.4,23.3,08.6,0000.0,0003.82,0002.52,0002.16
2022-02-04 21:35:00,,0832.3,5.01,0.00,21.6,21.3,00.0,30.5,23.3,08.8,0000.0,0003.93,0002.60,0002.21
2022-02-04 21:36:00,,0832.3,5.01,0.00,21.6,21.3,00.0,30.5,23.3,08.9,0000.0,0004.05,0002.65,0002.25
2022-02-04 21:37:00,,0832.3,5.00,0.00,21.6,21.3,00.0,30.5,23.3,08.6,0000.0,0004.33,0002.74,0002.28
2022-02-04 21:38:00,,0832.3,5.00,0.00,21.6,21.3,00.0,30.5,23.4,08.4,0000.0,0004.63,0002.78,0002.30
2022-02-04 21:39:00,,0832.4,4.99,0.00,21.7,21.4,00.0,30.5,23.4,08.5,0000.0,0005.26,0002.84,0002.32
2022-02-04 21:40:00,,0832.4,4.99,0.00,21.7,21.4,00.0,30.6,23.4,08.6,0000.0,0005.44,0002.93,0002.33
2022-02-04 21:41:00,,0832.4,5.00,0.00,21.7,21.4,00.0,30.6,23.4,08.5,0000.0,0005.56,0002.99,0002.34
2022-02-04 21:42:00,,0832.4,5.01,0.00,21.7,21.4,00.0,30.6,23.4,08.5,0000.0,0005.65,0003.00,0002.35
2022-02-04 21:43:00,,0832.4,4.99,0.00,21.7,21.4,00.0,30.6,23.5,08.5,0000.0,0005.62,0002.98,0002.35
2022-02-04 21:44:00,,0832.4,5.00,0.00,21.7,21.4,00.0,30.6,23.5,08.3,0000.0,0005.37,0002.92,0002.35
2022-02-04 21:45:00,,0832.4,5.00,0.00,21.7,21.4,00.0,30.6,23.5,08.2,0000.0,0005.28,0002.95,0002.34
2022-02-04 21:46:00,,0832.4,5.02,0.00,21.7,21.4,00.0,30.6,23.5,08.7,0000.0,0005.41,0002.94,0002.34
2022-02-04 21:47:00,,0832.4,5.00,0.00,21.8,21.4,00.0,30.7,23.5,08.7,0000.0,0005.48,0002.97,0002.34
2022-02-04 21:48:00,,0832.4,5.00,0.00,21.8,21.5,00.0,30.7,23.5,08.7,0000.0,0005.42,0002.97,0002.34
2022-02-04 21:49:00,,0832.4,5.00,0.00,21.8,21.5,00.0,30.7,23.6,08.6,0000.0,0005.29,0003.02,0002.35
2022-02-04 21:50:00,,0832.4,5.00,0.00,21.9,21.6,00.0,30.7,23.6,08.1,0000.0,0004.70,0003.01,0002.35
2022-02-04 21:51:00,,0832.4,5.01,0.00,21.9,21.6,00.0,30.7,23.7,07.9,0000.0,0004.75,0002.98,0002.33
2022-02-04 21:52:00,,0832.4,5.01,0.00,21.9,21.6,00.0,30.8,23.7,08.1,0000.0,0004.70,0002.90,0002.31
2022-02-04 21:53:00,,0832.3,5.00,0.00,21.9,21.6,00.0,30.8,23.7,08.3,0000.0,0004.82,0002.89,0002.31
2022-02-04 21:54:00,,0832.4,5.00,0.00,21.9,21.7,00.0,30.8,23.7,08.5,0000.0,0005.07,0002.92,0002.32
2022-02-04 21:55:00,,0832.4,4.99,0.00,22.0,21.7,00.0,30.8,23.8,08.6,0000.0,0005.17,0002.94,0002.32
2022-02-04 21:56:00,,0832.4,5.00,0.00,22.0,21.7,00.0,30.8,23.8,08.7,0000.0,0005.21,0002.94,0002.32
2022-02-04 21:57:00,,0832.4,4.99,0.00,22.0,21.7,00.0,30.8,23.8,08.5,0000.0,0005.16,0002.91,0002.33
2022-02-04 21:58:00,,0832.4,5.01,0.00,22.0,21.7,00.0,30.9,23.8,08.3,0000.0,0005.96,0002.89,0002.33
2022-02-04 21:59:00,,0832.4,5.00,0.00,22.1,21.7,00.0,30.9,23.8,08.6,0000.0,0006.01,0002.87,0002.32
